FALCON 9 DEB (56364 NORAD) Tracking and Keplerian Element Data

This shows tracking and keplerian element data for the satellite.

Feedback or suggestion? Click here.




ElementValue
Catalog56364
NameFALCON 9 DEB
Epoch Orbit755
Epoch Day161.99397235
Epoch Year2023
RAAN166.479
Inclination97.6561
Eccentricity0.0017659
Argument of Perigee106.5694
Mean Anonmoly253.7531
Mean Motion16.13713661
Decay Rate0.00907156
L11 56364U 23058AZ 23161.99397235 .00907156 51275-3 74968-3 0 9990
L22 56364 97.6561 166.4790 0017659 106.5694 253.7531 16.13713661 7550



Live tracking and technical data element details for FALCON 9 DEB (NORAD 56364). FALCON 9 DEB can be tracked NOW for your location showing map with azimuth and elevation plus other details from your city location.







IsCatalogInMostPopularTable: catalog: 56364, numindb: 8
Update: records affected: 1



GetName: 56364 FALCON 9 DEB

Hit Count: updated at: Thu, 28 Sep 2023 04:25:48 GMT